TIANLIAN 2-01

Last updated on Wed Sep 17 2025 00:02:50 GMT+0000 (Coordinated Universal Time)

1 44076U 19017A 25259.86055720 -.00000126 00000+0 00000+0 0 9993 2 44076 0.1756 276.2474 0003549 288.3830 178.2062 1.00270348 23913
UTC large
Height (km)
Speed (km/s)
/
Latitude / Longitude
Inclination (degrees)
Orbital Period (minutes)
Azimuth
Elevation
Range (km)
Doppler Factor

Next 0 passes for location: London (51.5072 / 0.1276)

Sorry there are no passes over London.